Starlink 3154

operational
NORAD ID: 49417 Int'l Des: 2021-104 Owner: SPXS Country: US Constellation: starlink
LEOCIRCULAR

About Starlink 3154

Description loading...

Live Position

Loading 3D Globe...

Upcoming Passes

Altitude History

Altitude vs Time

uPlot chart will show altitude changes over time

Two-Line Element Set

1 49417U 21104K 26034.62124315 -.00001227 00000-0 -58986-4 0 9996
2 49417 53.2180 11.7128 0001335 96.1467 263.9677 15.08844009233626
Epoch: Feb 3, 2026 • Age: 10 hours

Current Status

Altitude 545.4 km
Velocity 7.60 km/s
Sub-Earth Point 53.19°N, 40.75°W
Launch Date Nov 13, 2021
Age 4.2 years
Type internet

Technical Details

Classification Payload
Mass 290.00 kg
Dry Mass 270.00 kg
Total Mass 290.00 kg
Length 0.20 m
Diameter 2.80 m
Span 9.00 m
Shape Box + pan
Manufacturer SPXS
Bus Type Starlink
Phase Status In Orbit
Owner/State SPXS/US

Large Constellations

Loading constellations...